Flag for U.S.A. Weather past 2 weeks in Sunnyvale, California, U.S.A.

Now
52 °F

Clear.


Feels Like: 52 °F
Forecast: 53 / 71 °F
Wind: No wind

Location: Moffett Field

Current Time: Oct 22, 2014 at 8:28:16 AM

Latest Report: Oct 22, 2014 at 6:56 AM


Visibility: 10 mi

Pressure: 30.06 "Hg

Humidity: 86%

Dew point: 48 °F

Location of SunnyvaleLocation

Historic Weather in Sunnyvale — Graph

°F

Sunnyvale temperature yesterday

Maximum temperature yesterday: 72 °F (at 2:56 PM)
Minimum temperature yesterday: 53 °F (at 4:56 AM)
Average temperature yesterday: 61 °F

Past Weeks' High & Low Weather Summary

 TemperatureHumidityPressure
High89 °F (Oct 12, 3:56 PM)100% (Oct 7, 7:56 AM)30.13 "Hg (Oct 7, 7:56 AM)
Low52 °F (Oct 22, 6:56 AM)11% (Oct 12, 4:56 PM)29.83 "Hg (Oct 14, 6:03 PM)
Average65 °F72%29.97 "Hg
* Reported Oct 7 6:56 AM — Oct 22 6:56 AM, Sunnyvale, Weather by CustomWeather, © 2014

Note: Actual official high and low records may vary slightly from our data, if they occured in-between our weather recording intervals... More about our weather records

Advertising

Sunnyvale weather history for previous 24 hours

 ConditionsComfort  
Time TempWeatherWind HumidityBarometerVisibility
6:56 AM
Oct 22
52 °FClear.No wind86%30.06 "Hg10 mi
5:56 AM53 °FClear.No wind83%30.06 "Hg10 mi
4:56 AM53 °FClear.No wind83%30.05 "Hg10 mi
3:56 AM54 °FClear.No wind80%30.06 "Hg10 mi
2:56 AM54 °FClear.3 mph80%30.07 "Hg10 mi
1:56 AM54 °FClear.No wind83%30.06 "Hg10 mi
12:56 AM55 °FClear.No wind80%30.07 "Hg10 mi
11:56 PM
Oct 21
57 °FClear.No wind72%30.07 "Hg10 mi
10:56 PM59 °FClear.No wind69%30.07 "Hg10 mi
9:56 PM61 °FClear.3 mph67%30.06 "Hg10 mi
8:56 PM61 °FClear.5 mph65%30.05 "Hg10 mi
7:56 PM62 °FClear.6 mph58%30.05 "Hg10 mi
6:56 PM63 °FSunny.7 mph54%30.03 "Hg10 mi
5:56 PM66 °FSunny.9 mph47%30.03 "Hg10 mi
4:56 PM69 °FSunny.10 mph42%30.03 "Hg10 mi
3:56 PM70 °FSunny.14 mph41%30.04 "Hg10 mi
2:56 PM72 °FSunny.12 mph35%30.03 "Hg10 mi
1:56 PM70 °FSunny.7 mph39%30.05 "Hg10 mi
12:56 PM68 °FSunny.8 mph42%30.09 "Hg10 mi
11:56 AM66 °FSunny.8 mph45%30.10 "Hg10 mi
10:56 AM64 °FSunny.6 mph58%30.11 "Hg10 mi
9:56 AM62 °FSunny.3 mph67%30.13 "Hg10 mi
8:56 AM59 °FSunny.No wind84%30.13 "Hg10 mi
Weather by CustomWeather, © 2014

See weather overviewHow to use our weather pages